When you browse on this site, cookies collect data to enhance your experience and personalize the content and advertising you see.
Visit our Privacy Policy to learn more. By continuing to use the site, you agree to this use of cookies and data.
  • In Czech Republic
  • List of Countries
  • For 7 days
  • Water Temperature
  • Weather Map
  • Weather Widgets
  • user-avatar
    Login

    Hourly Weather Krasnyy Bor

    Today, 31 May, Sunday

    Time Temperature Precipitation Wind Pressure Humidity
    00:00 +17°C° 0 mm 2 mps 751 mmHg 86%
    01:00 +18°C° 0.1 mm 1 mps 750 mmHg 86%
    02:00 +18°C° 0.1 mm 1 mps 750 mmHg 86%
    03:00 +18°C° 0 mm 1 mps 750 mmHg 79%
    04:00 +19°C° 0 mm 1 mps 749 mmHg 79%
    05:00 +18°C° 0 mm 2 mps 748 mmHg 79%
    06:00 +19°C° 0 mm 2 mps 748 mmHg 79%
    07:00 +20°C° 0 mm 2 mps 747 mmHg 77%
    08:00 +21°C° 0 mm 3 mps 747 mmHg 75%
    09:00 +22°C° 0 mm 4 mps 747 mmHg 70%
    10:00 +22°C° 0 mm 4 mps 747 mmHg 70%
    11:00 +23°C° 0 mm 4 mps 746 mmHg 71%
    12:00 +23°C° 0 mm 4 mps 746 mmHg 71%
    13:00 +24°C° 2.2 mm 3 mps 746 mmHg 73%
    14:00 +24°C° 2.2 mm 3 mps 746 mmHg 75%
    15:00 +22°C° 0 mm 4 mps 746 mmHg 73%
    16:00 +21°C° 2.6 mm 4 mps 746 mmHg 78%
    17:00 +20°C° 2.6 mm 3 mps 746 mmHg 83%
    18:00 +19°C° 2.6 mm 2 mps 746 mmHg 88%
    19:00 +18°C° 0.4 mm 2 mps 746 mmHg 90%
    20:00 +17°C° 0.4 mm 2 mps 747 mmHg 92%
    21:00 +16°C° 0.4 mm 2 mps 747 mmHg 95%
    22:00 +15°C° 0 mm 2 mps 747 mmHg 95%
    23:00 +15°C° 0 mm 2 mps 747 mmHg 95%

    Tomorrow, 1 June, Monday

    Time Temperature Precipitation Wind Pressure Humidity
    00:00 +14°C° 0 mm 2 mps 747 mmHg 95%
    01:00 +14°C° 0.1 mm 2 mps 747 mmHg 96%
    02:00 +14°C° 0.1 mm 2 mps 748 mmHg 96%
    03:00 +13°C° 0.1 mm 2 mps 748 mmHg 97%
    04:00 +14°C° 0 mm 2 mps 748 mmHg 95%
    05:00 +14°C° 0 mm 2 mps 748 mmHg 94%
    06:00 +14°C° 0 mm 2 mps 748 mmHg 93%
    07:00 +14°C° 0.1 mm 2 mps 749 mmHg 92%
    08:00 +15°C° 0.1 mm 2 mps 750 mmHg 91%
    09:00 +15°C° 0.1 mm 1 mps 750 mmHg 90%
    10:00 +15°C° 0.3 mm 2 mps 750 mmHg 90%
    11:00 +15°C° 0.3 mm 2 mps 751 mmHg 90%
    12:00 +14°C° 0.3 mm 3 mps 751 mmHg 89%
    13:00 +14°C° 0.2 mm 3 mps 752 mmHg 89%
    14:00 +13°C° 0.2 mm 3 mps 752 mmHg 89%
    15:00 +13°C° 0.2 mm 3 mps 753 mmHg 89%
    16:00 +13°C° 0 mm 3 mps 753 mmHg 89%
    17:00 +13°C° 0 mm 3 mps 753 mmHg 88%
    18:00 +13°C° 0 mm 2 mps 753 mmHg 88%
    19:00 +12°C° 0 mm 2 mps 753 mmHg 90%
    20:00 +10°C° 0 mm 2 mps 754 mmHg 92%
    21:00 +9°C° 0 mm 2 mps 755 mmHg 95%
    22:00 +9°C° 0 mm 2 mps 755 mmHg 94%
    23:00 +9°C° 0 mm 2 mps 755 mmHg 94%

    Day after tomorrow, 2 June, Tuesday

    Time Temperature Precipitation Wind Pressure Humidity
    00:00 +10°C° 0 mm 1 mps 755 mmHg 94%
    01:00 +8°C° 0 mm 2 mps 755 mmHg 93%
    02:00 +8°C° 0 mm 2 mps 756 mmHg 93%
    03:00 +8°C° 0 mm 2 mps 756 mmHg 93%
    04:00 +9°C° 0 mm 2 mps 756 mmHg 90%
    05:00 +10°C° 0 mm 3 mps 756 mmHg 87%
    06:00 +11°C° 0 mm 3 mps 756 mmHg 84%
    07:00 +12°C° 0 mm 3 mps 756 mmHg 79%
    08:00 +13°C° 0 mm 3 mps 756 mmHg 74%
    09:00 +14°C° 0 mm 3 mps 757 mmHg 69%
    10:00 +16°C° 0 mm 3 mps 757 mmHg 67%
    11:00 +16°C° 0 mm 2 mps 756 mmHg 65%
    12:00 +17°C° 0 mm 2 mps 756 mmHg 62%
    13:00 +17°C° 0 mm 2 mps 756 mmHg 63%
    14:00 +18°C° 0 mm 3 mps 756 mmHg 63%
    15:00 +18°C° 0 mm 3 mps 756 mmHg 64%
    16:00 +17°C° 0 mm 3 mps 756 mmHg 69%
    17:00 +16°C° 0 mm 3 mps 756 mmHg 74%
    18:00 +16°C° 0 mm 3 mps 756 mmHg 80%
    19:00 +14°C° 0 mm 3 mps 756 mmHg 81%
    20:00 +13°C° 0 mm 3 mps 756 mmHg 82%
    21:00 +12°C° 0 mm 3 mps 756 mmHg 84%
    22:00 +11°C° 0 mm 3 mps 756 mmHg 85%
    23:00 +11°C° 0 mm 3 mps 756 mmHg 86%

    3 June, Wednesday

    Time Temperature Precipitation Wind Pressure Humidity
    00:00 +10°C° 0 mm 3 mps 756 mmHg 88%
    01:00 +10°C° 0 mm 3 mps 756 mmHg 87%
    02:00 +10°C° 0 mm 3 mps 756 mmHg 86%
    03:00 +10°C° 0 mm 3 mps 756 mmHg 85%
    04:00 +11°C° 0 mm 3 mps 756 mmHg 85%
    05:00 +11°C° 0 mm 3 mps 756 mmHg 84%
    06:00 +11°C° 0 mm 4 mps 756 mmHg 84%
    07:00 +13°C° 0 mm 4 mps 756 mmHg 80%
    08:00 +14°C° 0 mm 4 mps 756 mmHg 75%
    09:00 +15°C° 0 mm 5 mps 756 mmHg 71%
    10:00 +16°C° 0 mm 5 mps 756 mmHg 69%
    11:00 +17°C° 0 mm 5 mps 756 mmHg 66%
    12:00 +19°C° 0 mm 5 mps 756 mmHg 64%
    13:00 +19°C° 0 mm 5 mps 756 mmHg 63%
    14:00 +19°C° 0 mm 4 mps 756 mmHg 62%
    15:00 +19°C° 0 mm 4 mps 756 mmHg 62%
    16:00 +19°C° 0 mm 4 mps 756 mmHg 66%
    17:00 +18°C° 0 mm 3 mps 755 mmHg 70%
    18:00 +18°C° 0 mm 3 mps 755 mmHg 74%
    19:00 +16°C° 0 mm 3 mps 755 mmHg 77%
    20:00 +14°C° 0 mm 3 mps 756 mmHg 79%
    21:00 +12°C° 0 mm 3 mps 756 mmHg 82%
    22:00 +12°C° 0 mm 3 mps 756 mmHg 81%
    23:00 +11°C° 0 mm 4 mps 756 mmHg 80%

    4 June, Thursday

    Time Temperature Precipitation Wind Pressure Humidity
    00:00 +11°C° 0 mm 4 mps 756 mmHg 79%
    01:00 +10°C° 0 mm 4 mps 756 mmHg 79%
    02:00 +10°C° 0 mm 4 mps 756 mmHg 78%
    03:00 +8°C° 0 mm 4 mps 756 mmHg 78%
    04:00 +10°C° 0 mm 4 mps 756 mmHg 77%
    05:00 +11°C° 0 mm 4 mps 755 mmHg 77%
    06:00 +12°C° 0 mm 5 mps 755 mmHg 76%
    07:00 +13°C° 0 mm 5 mps 755 mmHg 73%
    08:00 +15°C° 0 mm 5 mps 755 mmHg 70%
    09:00 +17°C° 0 mm 6 mps 755 mmHg 67%
    10:00 +19°C° 0 mm 6 mps 755 mmHg 66%
    11:00 +20°C° 0 mm 6 mps 755 mmHg 64%
    12:00 +21°C° 0 mm 6 mps 754 mmHg 62%
    13:00 +21°C° 0 mm 6 mps 754 mmHg 63%
    14:00 +21°C° 0 mm 6 mps 754 mmHg 64%
    15:00 +22°C° 0 mm 5 mps 754 mmHg 66%
    16:00 +21°C° 0 mm 5 mps 754 mmHg 69%
    17:00 +21°C° 0 mm 5 mps 754 mmHg 73%
    18:00 +20°C° 0 mm 4 mps 753 mmHg 77%
    19:00 +19°C° 0 mm 4 mps 753 mmHg 79%
    20:00 +17°C° 0 mm 4 mps 754 mmHg 81%
    21:00 +15°C° 0 mm 5 mps 754 mmHg 84%
    22:00 +15°C° 0 mm 5 mps 754 mmHg 85%
    23:00 +14°C° 0 mm 5 mps 754 mmHg 86%

    5 June, Friday

    Time Temperature Precipitation Wind Pressure Humidity
    00:00 +14°C° 0 mm 5 mps 754 mmHg 87%
    01:00 +14°C° 0 mm 5 mps 754 mmHg 84%
    02:00 +14°C° 0 mm 5 mps 754 mmHg 81%
    03:00 +15°C° 0 mm 6 mps 754 mmHg 78%
    04:00 +14°C° 0.1 mm 6 mps 754 mmHg 78%
    05:00 +14°C° 0.1 mm 6 mps 754 mmHg 78%
    06:00 +14°C° 0.1 mm 6 mps 754 mmHg 79%
    07:00 +15°C° 0 mm 6 mps 754 mmHg 79%
    08:00 +15°C° 0 mm 6 mps 754 mmHg 79%
    09:00 +15°C° 0 mm 6 mps 755 mmHg 79%
    10:00 +16°C° 0.3 mm 6 mps 755 mmHg 82%
    11:00 +16°C° 0.3 mm 6 mps 755 mmHg 85%
    12:00 +16°C° 0.3 mm 6 mps 755 mmHg 88%
    13:00 +16°C° 0.6 mm 5 mps 755 mmHg 89%
    14:00 +17°C° 0.6 mm 4 mps 755 mmHg 90%
    15:00 +17°C° 0.6 mm 3 mps 755 mmHg 91%
    16:00 +17°C° 0.3 mm 3 mps 755 mmHg 91%
    17:00 +17°C° 0.3 mm 4 mps 755 mmHg 90%
    18:00 +17°C° 0.3 mm 4 mps 755 mmHg 89%
    19:00 +17°C° 0 mm 4 mps 755 mmHg 89%
    20:00 +17°C° 0 mm 4 mps 755 mmHg 89%
    21:00 +17°C° 0 mm 4 mps 755 mmHg 89%
    22:00 +17°C° 0 mm 4 mps 755 mmHg 88%
    23:00 +17°C° 0 mm 4 mps 755 mmHg 88%
    Show more